Wind_Speed
7 7 9 9 10 12 15 17 16 15 16 15 15 15 16 14 8 9 5 4 10 13 13 12 2 6 1 1 2 2 1 3 6 10 8 6 4 2 3 6 1 2 4 7 29
8 8 8 8 9 11 13 15 15 15 16 15 15 16 15 11 6 4 10 12 14 14 9 5 3 5 1 1 2 3 2 2 2 3 4 6 3 6 5 6 4 2 7 23 31
9 7 7 8 8 10 12 13 13 14 15 15 16 17 13 10 1 4 15 16 14 12 7 5 4 1 1 0 1 2 3 2 5 7 3 7 4 2 5 3 6 9 15 20 30
9 7 5 7 7 8 10 11 12 13 15 17 18 17 10 6 3 7 19 14 12 8 3 3 2 2 2 1 3 0 3 3 5 7 3 4 7 1 3 3 9 7 20 20 22
9 7 6 7 7 7 9 10 11 12 14 17 18 16 5 5 3 14 17 12 9 10 7 4 4 2 1 1 2 1 2 3 5 6 2 1 5 6 4 6 6 13 17 20 18
9 7 6 7 7 8 9 11 12 12 13 15 17 13 3 4 13 15 15 10 8 9 7 6 3 2 1 2 1 2 3 4 4 6 2 2 2 7 2 5 5 9 13 13 15
8 7 8 8 8 8 10 12 13 13 13 13 14 11 2 3 14 13 12 7 6 5 3 3 4 3 3 2 2 1 2 2 3 2 3 5 1 18 5 4 5 7 9 11 11
9 9 9 10 9 9 11 13 14 13 11 9 9 7 4 8 13 12 12 7 10 4 4 6 5 2 1 4 3 2 4 3 3 4 2 6 13 9 11 4 6 9 9 12 11
10 11 9 8 8 10 11 13 13 8 8 5 3 3 5 11 15 12 11 9 14 4 1 2 2 2 4 3 3 5 1 0 4 3 2 3 2 4 9 11 7 10 10 8 8
11 10 8 6 8 11 12 12 5 5 4 3 2 3 6 6 15 12 11 9 4 7 3 6 4 3 4 4 1 3 2 1 2 3 2 2 4 1 3 22 11 2 5 8 9
10 9 8 8 9 12 12 2 6 3 6 2 4 3 6 15 5 9 10 8 4 6 4 4 6 3 3 2 1 1 1 3 2 3 0 3 4 2 4 4 9 2 4 7 10
9 7 7 8 8 13 8 6 3 1 4 2 4 5 8 4 4 6 13 5 6 5 7 5 4 4 4 1 1 2 1 3 3 4 2 2 5 5 6 7 14 11 8 7 6
8 8 8 9 6 6 11 5 2 1 1 5 3 4 5 2 3 5 5 2 4 6 5 1 4 4 1 3 4 2 2 3 2 6 2 3 4 5 3 2 5 17 23 15 16
8 9 9 8 2 4 3 5 3 0 4 6 4 2 3 1 3 3 2 1 4 4 4 2 4 5 3 3 2 3 2 3 2 3 2 3 3 4 3 5 8 13 16 17 15
7 9 9 8 2 2 3 4 1 1 5 8 6 4 6 3 5 2 2 2 2 3 3 3 5 5 3 1 1 3 2 1 2 2 2 3 0 5 1 5 9 11 12 18 14
6 8 8 4 3 3 4 2 1 6 3 7 4 6 7 4 5 6 5 4 0 1 2 4 4 2 1 4 2 2 0 3 3 2 1 3 2 4 4 6 4 6 10 13 11
6 5 5 4 1 4 3 2 5 6 3 7 4 5 3 4 6 5 5 6 4 6 7 6 2 3 1 2 3 5 5 3 4 3 4 1 1 8 7 6 5 4 5 4 5
5 3 3 2 3 3 1 4 6 2 4 2 3 4 3 5 2 5 4 6 2 4 2 4 7 4 4 1 3 2 0 3 2 2 3 2 5 5 5 4 5 4 2 6 7
5 3 1 1 1 1 4 4 5 5 1 2 4 3 4 1 2 6 2 2 2 1 2 4 5 4 1 1 1 1 1 1 3 1 1 3 6 8 4 4 4 8 4 3 6
4 1 1 1 1 2 4 4 3 3 5 2 0 1 3 4 5 5 2 2 2 1 2 2 4 2 4 1 3 1 2 1 2 2 4 4 4 5 7 9 8 7 7 4 3
2 3 1 0 2 4 2 5 4 4 3 4 4 3 4 3 1 3 4 3 3 2 1 3 3 5 2 2 1 1 2 2 1 3 3 3 5 6 5 5 8 8 6 5 3
2 2 1 1 3 0 2 4 2 3 1 2 2 5 5 3 3 3 4 4 4 3 1 3 2 4 7 2 3 2 3 4 3 3 3 2 8 5 6 5 5 8 6 2 3
2 1 2 1 2 2 3 3 3 4 4 4 4 5 3 4 2 5 3 1 4 4 4 4 2 4 7 2 1 3 4 4 2 2 6 3 7 2 3 5 5 6 5 2 1
2 2 3 3 1 2 2 4 3 2 2 4 3 3 2 3 5 4 3 2 4 2 2 2 3 6 6 8 2 6 5 5 5 3 5 9 15 14 9 9 7 6 6 5 5
2 2 1 2 1 2 1 2 2 3 3 4 2 7 7 4 2 5 4 4 2 2 2 3 5 5 8 10 6 16 17 10 11 12 10 3 10 13 8 9 9 6 5 6 7
2 2 1 1 2 2 3 4 5 3 6 4 5 1 7 7 9 6 5 4 6 2 5 1 4 2 6 8 5 8 12 12 15 15 10 15 25 17 13 6 6 8 6 8 8
2 1 3 2 2 3 4 5 3 3 4 3 7 3 4 14 9 9 6 5 7 7 7 6 4 2 6 3 6 9 7 5 4 5 6 8 10 3 5 7 6 6 7 10 10
Wind_Direction
321 325 331 339 345 341 354 358 356 357 0 0 1 360 353 353 15 28 34 345 3 335 318 318 311 2 227 282 246 138 292 254 182 164 192 196 157 99 123 132 297 137 150 148 152
325 325 330 336 338 344 1 3 359 356 359 1 1 355 350 345 352 10 14 339 317 312 313 332 328 349 29 248 273 137 154 249 303 278 193 165 116 156 154 154 202 129 68 135 147
328 325 326 329 338 350 359 359 1 358 1 360 357 355 347 342 20 314 349 346 342 335 329 290 282 270 69 326 216 184 175 320 358 348 6 155 110 354 123 227 212 191 155 154 153
332 323 321 324 342 351 351 353 355 358 358 355 355 355 348 351 34 332 346 353 357 9 343 318 314 54 76 355 323 241 264 252 332 327 296 204 139 36 216 343 327 181 159 157 164
332 323 328 329 334 342 340 344 346 348 349 349 353 359 1 21 285 333 344 355 6 8 13 357 38 6 49 281 319 160 290 327 338 336 29 280 216 179 351 354 8 141 156 163 164
333 328 332 327 325 331 331 331 331 337 340 341 347 357 14 27 338 339 342 353 13 14 3 20 350 306 270 309 104 294 291 285 299 298 243 100 16 139 57 54 87 151 159 165 171
344 343 335 325 320 324 324 326 326 325 325 332 339 351 332 263 338 353 356 354 357 353 341 332 331 8 315 325 317 276 330 278 210 282 335 105 202 198 199 97 147 167 152 155 173
353 346 334 322 315 321 321 322 323 319 322 321 334 340 264 329 347 358 354 338 340 307 292 305 309 264 247 311 13 51 48 117 285 187 247 184 220 213 144 112 202 187 165 178 176
347 342 337 328 326 324 321 320 318 319 328 334 356 21 320 338 353 345 344 325 327 341 3 300 40 52 8 40 21 16 103 98 315 244 146 219 243 88 143 121 244 221 156 180 172
354 351 352 358 345 331 326 317 311 321 327 323 359 31 332 307 325 327 346 339 329 329 23 40 44 45 24 38 49 1 21 10 256 327 316 140 251 26 224 164 214 169 157 187 191
360 3 3 3 1 344 345 20 21 351 33 128 275 248 287 320 320 338 346 343 10 46 17 358 55 28 306 341 143 62 72 335 280 355 253 240 273 206 207 220 192 3 201 202 221
5 9 3 358 359 7 13 68 96 194 322 239 255 268 269 317 316 318 359 44 36 357 344 19 18 307 276 257 25 36 33 313 294 353 162 28 275 262 186 224 202 182 271 245 187
10 5 356 346 352 14 57 63 41 110 106 303 262 274 277 341 300 287 24 348 51 11 7 42 301 323 42 39 38 19 37 357 301 331 59 330 291 273 217 167 197 179 210 221 201
10 5 355 356 47 20 52 8 350 186 63 310 352 349 325 305 285 272 359 78 5 339 346 266 326 358 7 66 58 38 330 321 331 43 259 1 281 276 236 236 197 209 206 220 203
353 4 3 21 40 49 336 342 356 85 40 318 307 305 323 47 312 334 341 23 311 306 50 284 345 355 3 307 17 238 350 44 351 102 49 333 31 267 181 237 236 222 211 230 206
337 348 2 16 33 10 339 355 324 44 293 336 309 352 6 5 339 311 9 20 171 2 355 267 291 181 268 313 300 294 156 54 62 73 42 299 158 263 223 221 226 232 228 224 232
324 332 7 1 9 343 338 45 34 96 13 311 321 360 347 303 331 31 358 1 28 12 5 332 318 310 342 356 11 31 51 343 357 7 220 216 128 261 276 232 226 265 321 293 298
323 308 317 3 341 343 343 49 70 202 243 347 320 323 326 2 316 335 16 2 15 69 11 27 334 8 342 42 186 17 1 155 264 286 290 302 231 252 245 274 275 296 267 292 291
341 311 194 326 349 348 69 40 206 198 185 317 318 1 325 327 325 14 29 263 252 92 66 7 284 311 285 317 329 181 120 313 105 11 346 248 291 293 319 1 329 301 297 255 290
332 353 148 0 81 57 71 236 215 181 138 112 206 88 299 297 3 18 302 232 240 150 165 188 304 236 282 354 9 241 166 60 21 268 261 282 275 236 316 317 324 325 303 329 306
339 50 149 123 116 61 186 231 232 222 158 155 207 240 232 293 263 291 263 259 187 146 142 157 151 283 320 170 231 39 285 38 133 172 249 291 258 209 238 277 296 294 289 317 345
73 359 67 145 32 60 208 204 196 182 160 213 198 212 211 206 257 265 251 238 163 161 226 185 161 279 244 204 158 206 248 174 150 251 229 185 264 227 222 273 289 294 290 340 18
96 249 21 132 234 268 275 277 232 161 216 177 234 213 194 225 259 208 249 297 162 167 181 183 247 319 338 65 60 226 205 191 124 96 212 207 260 185 248 278 271 268 248 234 164
89 347 332 55 116 209 271 251 263 212 214 186 215 153 158 255 234 276 259 244 188 240 146 150 202 196 222 234 163 246 228 205 178 188 245 228 277 267 297 292 279 262 238 216 189
47 239 156 273 275 223 286 305 243 257 221 198 241 217 179 221 245 233 237 280 181 193 153 168 240 200 258 263 263 265 264 232 210 236 226 224 249 276 268 264 258 248 205 197 197
138 150 52 270 293 177 194 238 218 251 172 234 212 223 193 211 203 236 206 204 236 178 182 200 257 209 277 272 242 270 262 237 233 246 255 265 272 274 275 274 264 260 214 214 214
73 126 110 269 194 135 219 218 225 163 249 199 208 169 199 235 227 233 211 222 224 187 194 177 190 151 266 357 315 285 237 191 206 212 192 217 253 297 288 290 273 273 218 222 210
Height
836 835 834 834 832 831 829 827 825 822 819 816 813 810 808 806 804 804 803 803 800 795 794 792 791 789 789 789 788 785 794 790 780 778 771 771 772 775 776 781 783 783 783 783 793
835 835 834 833 832 830 828 827 825 822 819 816 813 810 808 806 804 804 805 802 798 794 793 792 791 789 790 789 789 787 795 787 776 770 767 766 767 774 776 781 785 785 787 788 793
835 834 834 833 831 830 829 827 825 823 820 817 814 810 808 806 805 804 803 800 796 793 791 792 790 789 789 789 788 790 791 783 776 770 769 767 772 773 777 783 775 776 785 790 792
835 834 833 832 831 830 829 827 825 823 821 818 814 810 808 806 815 803 801 799 797 794 793 791 789 790 792 793 791 791 784 781 777 774 771 770 770 773 776 775 775 772 778 786 791
835 834 832 831 830 828 828 827 825 823 821 819 815 811 809 810 809 803 800 798 796 794 793 792 792 792 793 793 791 788 784 781 779 775 773 769 768 771 775 776 778 779 782 785 791
834 833 832 831 829 828 827 826 824 822 820 818 816 813 811 814 806 803 800 797 796 794 794 793 793 792 792 792 790 789 786 784 779 777 775 772 772 775 777 780 785 787 788 792 796
834 832 832 830 829 827 826 824 823 821 819 818 816 814 813 812 805 802 800 797 796 795 794 793 792 792 791 790 789 788 787 782 781 777 775 771 784 781 776 782 789 791 791 796 797
833 831 830 830 828 826 825 823 821 820 818 816 815 814 814 807 805 802 800 797 795 794 793 792 791 791 791 790 789 789 792 794 783 779 777 777 783 776 771 782 791 795 792 794 795
833 831 829 828 827 826 824 821 819 818 817 816 815 814 813 807 804 802 800 798 794 793 791 791 791 794 792 795 798 800 799 797 787 779 778 779 780 780 770 779 795 798 789 794 796
833 831 829 828 827 824 821 819 818 817 816 815 815 820 810 811 805 802 800 798 796 793 792 793 798 800 803 800 805 803 798 796 793 784 781 784 783 775 776 771 793 788 789 793 796
833 832 831 828 826 824 820 817 820 822 818 820 821 820 815 810 806 803 800 798 798 800 804 801 807 807 806 803 801 800 800 800 790 786 785 786 782 777 775 773 775 780 789 792 790
834 832 831 829 827 825 823 825 830 832 828 820 820 818 814 813 812 804 802 804 806 811 807 806 808 803 801 800 800 799 800 798 792 790 786 788 782 776 777 773 766 772 785 788 793
834 832 831 829 828 828 828 830 830 830 832 822 817 817 815 814 814 810 805 807 809 811 812 810 804 800 797 800 800 800 800 800 799 794 790 789 786 777 773 772 772 776 783 788 787
834 833 831 829 831 829 830 830 830 830 841 827 819 816 814 813 814 807 807 809 809 810 811 809 804 803 799 800 802 803 801 799 797 799 801 797 797 784 776 774 775 773 774 773 776
835 832 831 829 830 831 832 830 829 831 860 825 821 814 813 816 816 808 807 806 810 811 813 808 806 807 803 802 801 802 801 801 800 804 804 801 804 782 782 776 771 766 768 765 766
834 833 832 832 832 832 831 829 831 849 861 833 822 825 822 817 816 812 810 808 809 811 813 813 809 806 804 803 801 799 800 806 817 813 815 808 807 787 778 769 764 762 761 760 757
833 833 831 832 832 831 831 831 852 859 837 830 831 829 831 825 819 818 821 821 823 827 827 819 808 807 805 804 802 804 810 818 816 817 809 816 815 781 767 767 763 761 761 760 759
832 831 832 832 832 831 831 836 847 834 838 833 833 831 827 826 820 822 823 830 821 825 838 832 826 809 807 806 807 809 812 819 815 819 814 814 803 778 764 762 765 765 768 764 762
830 831 830 831 831 831 836 855 837 835 831 834 832 828 830 824 826 824 823 825 822 820 824 832 822 810 809 808 809 810 812 816 819 830 822 803 791 774 764 765 765 765 765 767 763
829 829 831 831 831 833 841 836 832 829 832 834 832 832 832 830 829 829 824 817 817 819 821 823 832 811 809 809 812 810 813 814 825 811 809 802 800 786 769 767 769 767 765 765 766
829 830 831 831 831 836 845 837 831 830 828 833 832 833 835 832 830 829 822 815 815 818 821 822 826 814 812 810 811 816 815 819 821 820 807 808 790 779 771 769 770 768 765 765 765
829 835 831 831 838 850 837 831 827 828 830 830 832 835 832 829 829 828 826 818 815 816 817 821 829 827 811 811 811 812 810 815 815 810 824 822 795 767 768 772 772 768 766 764 765
833 834 832 831 836 838 833 829 827 829 830 833 834 835 832 831 828 825 820 814 818 818 819 822 830 837 808 810 813 810 810 811 820 822 815 809 775 766 772 769 766 765 763 764 765
833 836 834 833 837 831 827 825 824 827 825 829 827 829 832 831 833 824 819 813 817 818 817 818 826 819 822 804 802 804 803 810 808 820 799 791 771 758 764 766 760 763 763 764 764
834 834 835 832 830 832 830 828 823 822 828 828 825 830 830 829 825 832 824 816 816 815 820 823 825 826 810 809 810 799 795 798 809 792 789 777 779 756 764 761 757 755 761 764 763
833 835 839 838 836 832 830 826 823 820 823 823 827 818 831 827 818 815 816 815 812 819 821 827 821 819 813 799 808 802 790 794 790 787 791 785 769 756 755 760 759 757 759 760 760
833 835 832 835 837 833 829 820 817 820 814 814 819 821 827 819 814 809 811 811 808 812 821 825 827 825 813 805 804 788 772 782 781 784 774 780 755 758 756 755 753 751 755 754 755